Location: Macksville High School
(37.9611°N, 99.9654°W)
Time: 20:02:27
(UTC+00:00)

NOAA 11 - Pass Details

Date: 17 January 2021
Orbit: 832 x 850 km, 98.4° (Epoch: 26 February)

Event Time Altitude Azimuth Distance (km) Brightness Sun altitude
Rises 13:23:06 0° 10° (N) 3,411 7.2 -6.4°
Reaches altitude 10° 13:25:29 10° 9° (N) 2,470 6.5 -5.9°
Maximum altitude 13:30:56 73° 286° (WNW) 878 4.2 -4.9°
Drops below altitude 10° 13:36:20 10° 202° (SSW) 2,442 6.6 -3.9°
Sets 13:38:41 0° 200° (SSW) 3,370 7.4 -3.5°
